EW3232 Pla de la Font ES current weather conditions

sailwx.info

Wind from 028 at 2 knots gusting 8

Air temperature 11.1° C
Dewpoint 9.2° C

Last reported at 2020-Jan-22 15:01 UTC.
Time now 2020-Jan-22 15:28 UTC

Location: N 40°31' E 000°10'.
View on Google Maps.

See reports from other nearby stations

  
Tides and Currents Weather Stations Pressure Air Temp Water Temp Dewpoint Dewpoint Depression Visibility Wind Speed Wind Dir Waves Ship Positions
date/time (UTC)wind fromknots sea level pressurealtimeterstation pressurevisibilityair tempwater tempwave heightnotes
2020-Jan-22 15:01 028 2 gusting 8 11.1
2020-Jan-22 14:50 050 5 gusting 8 11.1
2020-Jan-22 14:45 061 1 gusting 6 11.1
2020-Jan-22 14:31 039 6 gusting 10 11.1
2020-Jan-22 14:16 040 2 gusting 6 11.7
2020-Jan-22 14:06 054 0 gusting 7 11.7
2020-Jan-22 14:01 012 2 gusting 8 11.7
2020-Jan-22 13:55 032 3 gusting 9 11.7
2020-Jan-22 13:50 064 2 gusting 7 11.7
2020-Jan-22 13:40 064 1 gusting 8 11.7
2020-Jan-22 13:31 050 4 gusting 10 11.7
2020-Jan-22 13:20 048 2 gusting 8 11.7
2020-Jan-22 13:05 071 5 gusting 8 11.1
2020-Jan-22 13:01 091 1 gusting 6 11.1
2020-Jan-22 12:55 017 2 gusting 8 11.1
2020-Jan-22 12:47 012 6 gusting 11 11.1
2020-Jan-22 12:40 041 4 gusting 11 11.1
2020-Jan-22 12:25 031 2 gusting 13 10.6
2020-Jan-22 12:11 079 6 gusting 11 10.6
2020-Jan-22 12:04 070 4 gusting 8 10.6
2020-Jan-22 11:55 111 3 gusting 10 10.6
2020-Jan-22 11:45 079 6 gusting 9 10.6
2020-Jan-22 11:40 073 5 gusting 11 10.6
2020-Jan-22 11:25 086 6 gusting 10 11.1
2020-Jan-22 11:20 118 6 gusting 10 11.1
2020-Jan-22 11:10 092 3 gusting 11 11.1
2020-Jan-22 11:05 109 4 gusting 11 11.1
2020-Jan-22 10:55 045 4 gusting 8 10.6
2020-Jan-22 10:51 067 4 gusting 9 10.6
2020-Jan-22 10:40 071 5 gusting 10 10.6
2020-Jan-22 10:35 081 5 gusting 10 10.6
2020-Jan-22 10:20 074 0 gusting 7 10.6
2020-Jan-22 10:15 025 4 gusting 8 10.0
2020-Jan-22 10:00 038 2 gusting 6 10.0
2020-Jan-22 09:55 035 2 gusting 6 10.0
2020-Jan-22 09:40 080 5 gusting 7 10.0
2020-Jan-22 09:35 036 4 gusting 11 10.0
2020-Jan-22 09:25 041 3 gusting 7 10.0
2020-Jan-22 09:10 044 2 gusting 6 9.4
2020-Jan-22 09:02 095 0 gusting 6 9.4
2020-Jan-22 08:55 133 0 gusting 6 8.9
2020-Jan-22 08:40 221 0 gusting 4 8.9
2020-Jan-22 08:33 193 1 gusting 3 8.9
2020-Jan-22 08:25 071 8.9
2020-Jan-22 08:10 126 2 gusting 4 8.9
2020-Jan-22 08:05 081 0 gusting 6 8.9
2020-Jan-22 07:55 011 3 gusting 6 8.9
2020-Jan-22 07:40 067 8.9
2020-Jan-22 07:36 058 0 gusting 5 8.9
2020-Jan-22 07:30 031 0 gusting 7 8.9
2020-Jan-22 07:20 052 4 gusting 10 8.3
2020-Jan-22 07:00 003 3 gusting 7 8.3
2020-Jan-22 06:55 325 3 gusting 6 8.3
2020-Jan-22 06:46 278 8.3
2020-Jan-22 06:41 275 1 gusting 5 8.3
2020-Jan-22 06:33 143 0 gusting 8 8.9
2020-Jan-22 06:25 358 2 gusting 9 8.9
2020-Jan-22 06:18 055 2 gusting 9 8.9
2020-Jan-22 06:11 053 6 gusting 9 8.9
2020-Jan-22 06:00 010 3 gusting 7 8.9
2020-Jan-22 05:45 024 5 gusting 10 8.9
2020-Jan-22 05:30 347 5 gusting 9 8.9
2020-Jan-22 05:16 353 5 gusting 8 8.9
2020-Jan-22 05:01 021 4 gusting 8 8.9
2020-Jan-22 04:55 022 3 gusting 7 8.9
2020-Jan-22 04:35 344 3 gusting 8 8.3
2020-Jan-22 04:30 344 5 gusting 9 8.3
2020-Jan-22 04:10 024 3 gusting 7 8.3
2020-Jan-22 04:02 360 4 gusting 10 8.9
2020-Jan-22 03:55 037 4 gusting 10 8.9
2020-Jan-22 03:50 017 3 gusting 7 8.3
2020-Jan-22 03:36 037 2 gusting 11 8.3
2020-Jan-22 03:31 041 4 gusting 11 8.3
2020-Jan-22 03:10 048 3 gusting 10 8.3
2020-Jan-22 03:05 347 6 gusting 10 8.3
2020-Jan-22 02:55 022 6 gusting 14 8.3
2020-Jan-22 02:50 026 5 gusting 9 8.3
2020-Jan-22 02:40 028 3 gusting 10 8.3
2020-Jan-22 02:36 026 4 gusting 10 8.3
2020-Jan-22 02:31 022 4 gusting 8 8.3
2020-Jan-22 02:25 045 3 gusting 8 8.3
2020-Jan-22 02:05 004 3 gusting 10 8.3
2020-Jan-22 01:46 025 6 gusting 13 8.3
2020-Jan-22 01:40 040 7 gusting 13 8.3
2020-Jan-22 01:18 021 5 gusting 12 7.8
2020-Jan-22 01:10 056 5 gusting 12 7.8
2020-Jan-22 01:05 045 8 gusting 12 7.8
2020-Jan-22 00:48 029 5 gusting 13 7.8
2020-Jan-22 00:40 029 8 gusting 14 7.8
2020-Jan-22 00:16 036 6 gusting 12 7.8
2020-Jan-22 00:10 034 6 gusting 13 7.8
2020-Jan-21 23:35 031 7 gusting 15 7.8
2020-Jan-21 23:10 029 9 gusting 15 7.8
2020-Jan-21 22:46 015 8 gusting 14 7.8
2020-Jan-21 22:31 029 6 gusting 15 7.2
2020-Jan-21 22:21 029 9 gusting 17 7.2
2020-Jan-21 22:06 031 13 gusting 19 7.2
2020-Jan-21 21:50 011 8 gusting 19 7.2
2020-Jan-21 21:45 051 8 gusting 19 7.2
2020-Jan-21 21:35 037 11 gusting 19 7.2
2020-Jan-21 21:25 030 8 gusting 18 7.2
2020-Jan-21 21:20 023 4 gusting 18 7.2
2020-Jan-21 21:01 043 8 gusting 16 7.2
2020-Jan-21 20:41 045 3 gusting 12 7.2
2020-Jan-21 20:35 034 3 gusting 12 7.2
2020-Jan-21 20:31 036 2 gusting 17 7.2
2020-Jan-21 20:20 026 10 gusting 20 7.2
2020-Jan-21 20:10 360 6 gusting 14 7.2
2020-Jan-21 20:00 029 6 gusting 13 7.2
2020-Jan-21 19:55 050 6 gusting 16 7.2
2020-Jan-21 19:50 029 6 gusting 22 7.2
2020-Jan-21 19:40 012 9 gusting 23 7.2
2020-Jan-21 19:30 003 9 gusting 23 7.2
2020-Jan-21 19:20 349 8 gusting 22 6.7
2020-Jan-21 19:10 015 9 gusting 25 7.2
2020-Jan-21 19:01 015 8 gusting 21 7.2
2020-Jan-21 18:55 354 9 gusting 20 7.2
2020-Jan-21 18:35 033 13 gusting 23 7.2
2020-Jan-21 18:20 022 12 gusting 22 7.2
2020-Jan-21 18:16 022 10 gusting 23 7.2
2020-Jan-21 18:10 024 13 gusting 23 7.2
2020-Jan-21 17:55 052 12 gusting 19 7.2
2020-Jan-21 17:50 032 7 gusting 15 7.2
2020-Jan-21 17:20 062 4 gusting 18 7.8
2020-Jan-21 17:10 012 5 gusting 15 7.8
2020-Jan-21 17:01 041 8 gusting 18 7.8
2020-Jan-21 16:40 071 6 gusting 15 7.2
2020-Jan-21 16:35 045 9 gusting 15 7.2
2020-Jan-21 16:25 045 6 gusting 12 6.7
2020-Jan-21 16:16 041 5 gusting 11 6.1
2020-Jan-21 16:05 004 0 gusting 6 5.6
2020-Jan-21 16:01 008 4 gusting 7 6.1
2020-Jan-21 15:56 053 5 gusting 9 6.1
2020-Jan-21 15:50 076 6 gusting 17 6.1
2020-Jan-21 15:35 327 1 gusting 13 6.7
2020-Jan-21 15:20 177 4 gusting 7 7.2
2020-Jan-21 15:15 163 2 gusting 6 7.2
2020-Jan-21 15:05 102 5 gusting 7 7.2
2020-Jan-21 14:50 143 4 gusting 31 8.3
2020-Jan-21 14:35 099 17 gusting 33 9.4
2020-Jan-21 14:25 079 19 gusting 38 10.0
2020-Jan-21 14:20 091 18 gusting 38 10.0
2020-Jan-21 14:10 090 19 gusting 28 9.4
2020-Jan-21 14:01 095 13 gusting 29 10.6
2020-Jan-21 13:55 114 12 gusting 26 10.6
2020-Jan-21 13:50 080 16 gusting 33 10.6
2020-Jan-21 13:40 063 19 gusting 34 10.6
2020-Jan-21 13:35 087 19 gusting 29 10.6
2020-Jan-21 13:25 091 19 gusting 38 10.6
2020-Jan-21 13:10 141 14 gusting 23 10.0
2020-Jan-21 13:01 084 19 gusting 37 10.0
2020-Jan-21 12:55 057 15 gusting 33 10.0
2020-Jan-21 12:47 126 15 gusting 32 10.6
2020-Jan-21 12:40 096 16 gusting 33 10.6
2020-Jan-21 12:31 068 11 gusting 26 10.0
2020-Jan-21 12:16 077 14 gusting 26 10.0
2020-Jan-21 12:10 110 13 gusting 31 10.0
2020-Jan-21 12:00 076 13 gusting 35 10.0
2020-Jan-21 11:50 081 19 gusting 42 10.0
2020-Jan-21 11:45 065 22 gusting 40 10.0
2020-Jan-21 11:40 070 16 gusting 33 10.0
2020-Jan-21 11:31 090 19 gusting 30 10.6
2020-Jan-21 11:15 124 14 gusting 28 10.6
2020-Jan-21 11:10 093 15 gusting 28 10.0
2020-Jan-21 11:06 105 16 gusting 36 10.0
2020-Jan-21 10:55 097 15 gusting 26 10.6
2020-Jan-21 10:50 062 12 gusting 25 10.6
2020-Jan-21 10:35 093 19 gusting 33 9.4
2020-Jan-21 10:20 036 2 gusting 14 7.8
2020-Jan-21 10:15 070 7 gusting 19 7.8
2020-Jan-21 10:00 077 11 gusting 24 8.3
2020-Jan-21 09:50 035 14 gusting 26 8.3
2020-Jan-21 09:35 029 6 gusting 19 7.2
2020-Jan-21 09:25 049 5 gusting 14 7.2
2020-Jan-21 09:20 083 6 gusting 14 7.2
2020-Jan-21 09:15 133 6 gusting 13 7.8
2020-Jan-21 09:10 100 6 gusting 23 7.8
2020-Jan-21 09:05 036 11 gusting 22 7.8
2020-Jan-21 08:47 060 7 gusting 13 7.2
2020-Jan-21 08:35 041 13 gusting 28 7.2
2020-Jan-21 08:20 040 15 gusting 26 7.2
2020-Jan-21 08:05 046 4 gusting 32 7.2
2020-Jan-21 07:55 020 13 gusting 28 7.8
2020-Jan-21 07:50 110 12 gusting 27 7.8
2020-Jan-21 07:45 015 13 gusting 27 7.2
2020-Jan-21 07:35 054 10 gusting 23 7.2
2020-Jan-21 07:31 022 6 gusting 32 7.2
2020-Jan-21 07:11 019 14 gusting 34 7.2
2020-Jan-21 07:05 002 19 gusting 35 7.2
2020-Jan-21 06:55 036 18 gusting 26 7.2
2020-Jan-21 06:51 055 9 gusting 20 7.2
2020-Jan-21 06:40 339 12 gusting 26 7.2
2020-Jan-21 06:35 034 10 gusting 27 7.2
2020-Jan-21 06:15 026 15 gusting 35 6.7
2020-Jan-21 06:00 020 15 gusting 28 7.2
2020-Jan-21 05:55 043 13 gusting 28 7.2
2020-Jan-21 05:35 033 14 gusting 26 7.2
2020-Jan-21 05:20 320 6 gusting 23 6.7
2020-Jan-21 05:06 011 12 gusting 28 6.7
2020-Jan-21 04:35 340 12 gusting 19 5.6
2020-Jan-21 04:31 330 7 gusting 16 5.6
2020-Jan-21 04:20 301 6 gusting 13 5.0
2020-Jan-21 04:10 330 8 gusting 19 5.0
2020-Jan-21 04:00 014 9 gusting 17 5.0
2020-Jan-21 03:55 287 5 gusting 17 5.0
2020-Jan-21 03:50 012 5 gusting 16 5.0
2020-Jan-21 03:26 003 7 gusting 13 5.0
2020-Jan-21 03:21 315 6 gusting 18 5.0
2020-Jan-21 03:15 022 11 gusting 22 5.0
2020-Jan-21 03:05 009 10 gusting 21 5.6
2020-Jan-21 02:47 104 7 gusting 21 5.6
2020-Jan-21 02:40 348 8 gusting 18 5.6
2020-Jan-21 02:21 346 9 gusting 23 5.6
2020-Jan-21 02:18 012 11 gusting 17 5.6
2020-Jan-21 02:01 012 13 gusting 31 5.6
2020-Jan-21 01:40 015 12 gusting 19 5.0
2020-Jan-21 01:35 333 9 gusting 18 5.0
2020-Jan-21 01:10 066 13 gusting 29 4.4
2020-Jan-21 01:05 022 11 gusting 26 5.0
2020-Jan-21 00:40 335 12 gusting 23 5.6
2020-Jan-21 00:35 053 14 gusting 23 5.6
2020-Jan-21 00:10 358 15 gusting 27 5.6
2020-Jan-21 00:05 028 11 gusting 21 5.6
2020-Jan-20 23:46 017 12 gusting 26 5.6
2020-Jan-20 23:25 358 13 gusting 26 5.6
2020-Jan-20 23:17 313 12 gusting 26 5.6
2020-Jan-20 23:10 012 12 gusting 27 5.6
2020-Jan-20 22:55 046 11 gusting 16 5.0
2020-Jan-20 22:40 024 15 gusting 28 5.0
2020-Jan-20 22:35 041 13 gusting 23 5.0
2020-Jan-20 22:26 048 14 gusting 24 5.0
2020-Jan-20 22:20 015 10 gusting 24 5.0
2020-Jan-20 22:10 025 8 gusting 19 5.0
2020-Jan-20 22:01 007 11 gusting 28 5.0
2020-Jan-20 21:31 041 13 gusting 29 5.0
2020-Jan-20 21:25 344 10 gusting 22 5.0
2020-Jan-20 21:20 008 13 gusting 24 5.0
2020-Jan-20 21:10 359 9 gusting 26 4.4
2020-Jan-20 21:00 001 15 gusting 27 5.0
2020-Jan-20 20:55 016 14 gusting 28 5.0
2020-Jan-20 20:51 034 11 gusting 29 5.0
2020-Jan-20 20:35 041 16 gusting 27 4.4
2020-Jan-20 20:20 021 12 gusting 25 4.4
2020-Jan-20 20:05 018 13 gusting 33 5.0
2020-Jan-20 20:00 027 12 gusting 28 4.4
2020-Jan-20 19:40 024 13 gusting 26 4.4
2020-Jan-20 19:31 052 13 gusting 26 4.4
2020-Jan-20 19:25 049 14 gusting 26 4.4
2020-Jan-20 19:21 333 10 gusting 25 4.4
2020-Jan-20 19:15 067 13 gusting 26 4.4
2020-Jan-20 19:10 045 13 gusting 26 4.4
2020-Jan-20 18:55 037 13 gusting 22 4.4
2020-Jan-20 18:45 034 16 gusting 24 4.4
2020-Jan-20 18:35 017 16 gusting 28 4.4
2020-Jan-20 18:31 044 11 gusting 23 4.4
2020-Jan-20 18:25 026 11 gusting 26 4.4
2020-Jan-20 18:15 034 15 gusting 29 4.4
2020-Jan-20 18:10 353 15 gusting 29 4.4
2020-Jan-20 17:55 346 16 gusting 26 4.4
2020-Jan-20 17:40 341 13 gusting 26 4.4
2020-Jan-20 17:35 022 11 gusting 29 4.4
2020-Jan-20 17:31 341 13 gusting 29 4.4
2020-Jan-20 17:20 020 13 gusting 27 4.4
2020-Jan-20 17:10 029 12 gusting 22 4.4
2020-Jan-20 16:55 346 10 gusting 25 4.4
2020-Jan-20 16:50 028 13 gusting 25 4.4
2020-Jan-20 16:40 339 9 gusting 26 4.4
2020-Jan-20 16:35 030 12 gusting 26 4.4
2020-Jan-20 16:31 003 15 gusting 25 4.4
2020-Jan-20 16:15 029 13 gusting 26 4.4
2020-Jan-20 16:05 013 11 gusting 20 4.4
2020-Jan-20 15:50 352 9 gusting 19 4.4
2020-Jan-20 15:40 036 11 gusting 19 4.4
2020-Jan-20 15:35 041 7 gusting 19 3.9
2020-Jan-20 15:25 043 8 gusting 21 3.9
2020-Jan-20 15:16 010 13 gusting 22 3.9
2020-Jan-20 15:10 006 11 gusting 22 3.9
2020-Jan-20 15:00 023 7 gusting 17 3.3